Location: Cisewo
(53.3833°N, 14.9000°E)
Time: 11:41:15
(UTC+00:00)

CZ-4B DEB - Pass Details

Date: 18 April 2021
Orbit: 413 x 418 km, 97.3° (Epoch: 14 May)

Event Time Altitude Azimuth Distance (km) Brightness Sun altitude
Exits shadow 20:55:02 63° 243° (WSW) 480 4.4 -20.2°
Maximum altitude 20:55:10 64° 258° (WSW) 476 4.5 -20.2°
Drops below altitude 10° 20:58:25 10° 341° (NNW) 1,527 8.2 -20.5°
Sets 21:00:27 0° 344° (NNW) 2,399 9.5 -20.7°
